[[{"header":{"parameterUnit":"m.s-1","parameterCategory":1,"la1":30.2992,"la2":30.254,"lo1":-89.0895,"lo2":-89.0443,"dy":0.0025,"dx":0.0025,"nx":19,"ny":19,"refTime":"2026-03-16T03:00:00:Z","depth":0,"parameterNumber":2,"parameterNumberName":"U-component_of_WINDS"},"data":[0,0,0,1.0038,1.0037,0.9999,0.9999,0.9958,0.9958,0,0,0,0,0,0,0,0,0,0,0,1.0053,1.0053,1.0038,1.0037,1.0,0.9999,0.9958,0.9958,0,0,0,0,0,0,0,0,0,0,0,1.0053,1.0053,1.0053,1.0037,1.0,0.9999,0.9958,0.9984,0,0,0,0,0,0,0,0,0,0,1.0019,1.0037,1.0053,1.0053,1.0037,1.0,0.9999,0.9985,0.9983,0.9978,0,0.9976,0,0.9966,0.9956,0.9956,0,0,0,1.0033,1.004,1.0026,1.0053,1.0036,1.0,1.0015,0.9984,0.9981,0.9975,0.9975,0.9973,0.9966,0.9956,0.9955,0.9944,0.9945,0,0,1.0035,1.0048,1.0028,1.0024,1.0031,1.0017,1.0014,0.9982,0.9983,0.9975,0.9972,0.9965,0.9955,0.9955,0.9944,0.9944,0,0,0,1.0044,1.005,1.0037,1.0026,1.0019,1.0016,1.0013,0.9984,0.9979,0.9972,0.9965,0.9955,0.9955,0.9944,0.9944,0.9962,0,0,0,1.0045,1.0054,1.0038,1.0045,1.002,1.0001,1.0016,0.9981,0.9977,0.9965,0.9955,0.9954,0.9944,0.9944,0.9962,0.9968,0,0,0,1.0054,1.0055,1.0052,1.0046,1.003,1.0001,0.9994,0.998,0.9973,0.9956,0.9954,0.9944,0.9944,0.9961,0.9967,0.9969,0,0,0,1.0067,1.0067,1.0052,1.005,1.0031,1.0013,0.9994,0.998,0.9968,0.9955,0.9944,0.9944,0.9961,0.9966,0.9969,0.9973,0.9976,0,0,1.0074,1.0068,1.0066,1.0052,1.004,1.0018,1.0009,0.9985,0.9971,0.9954,0.9954,0.9962,0.9967,0.9969,0.9991,0.9994,0,0,0,1.0073,1.0071,1.0065,1.0055,1.0038,1.0023,1.0,0.9991,0.9977,0.9965,0.9963,0.9966,0.9967,0.9968,0.997,0.997,0.9946,0.9946,0.9946,1.01,1.0084,1.008,1.006,1.005,1.0027,1.0017,1.0002,0.9987,0.9988,0.9982,0.9997,1.0,1.0001,1.0002,0.9984,0.9984,0.9984,0.9984,1.0109,1.0104,1.0088,1.0077,1.0061,1.0052,1.0031,1.0021,1.001,1.0,1.0,0.9989,1.0005,1.0004,0.9985,0.9985,0.9985,0.9984,0.9984,1.0124,1.0119,1.011,1.0095,1.0085,1.0065,1.0056,1.0041,1.0027,1.0027,1.002,1.002,1.0017,1.0025,1.0025,1.0025,1.0025,1.0025,1.0025,1.0143,1.0132,1.0127,1.0111,1.0103,1.0091,1.007,1.0062,1.0049,1.0039,1.0039,1.0025,1.001,1.0006,1.0026,1.0026,1.0026,1.0026,1.0026,1.0156,1.0151,1.0143,1.0136,1.0116,1.0108,1.0091,1.0076,1.0067,1.0064,1.0051,1.0042,1.0035,1.0033,1.0029,1.0054,1.0054,1.0054,1.0054,1.0168,1.0164,1.0153,1.0143,1.013,1.0115,1.0106,1.0091,1.0074,1.0068,1.0063,1.0058,1.0056,1.0049,1.0047,1.0044,1.0072,1.0072,1.0072,1.0176,1.017,1.0165,1.015,1.0135,1.0122,1.0114,1.0103,1.0083,1.0072,1.0063,1.0062,1.0054,1.0052,1.0039,1.0036,1.0029,0,0]},{"header":{"parameterUnit":"m.s-1","parameterCategory":1,"la1":30.2992,"la2":30.254,"lo1":-89.0895,"lo2":-89.0443,"dy":0.0025,"dx":0.0025,"nx":19,"ny":19,"refTime":"2026-03-16T03:00:00:Z","depth":0,"parameterNumber":3,"parameterNumberName":"V-component_of_WINDS"},"data":[0,0,0,-6.8378,-6.8384,-6.8667,-6.8668,-6.9036,-6.904,0,0,0,0,0,0,0,0,0,0,0,-6.8301,-6.8303,-6.8377,-6.8385,-6.8667,-6.8668,-6.9036,-6.904,0,0,0,0,0,0,0,0,0,0,0,-6.8299,-6.8303,-6.8306,-6.8386,-6.8667,-6.8669,-6.9035,-6.8818,0,0,0,0,0,0,0,0,0,0,-6.8542,-6.8479,-6.8302,-6.8306,-6.8387,-6.8667,-6.8669,-6.8808,-6.8832,-6.8911,0,-6.8987,0,-6.9019,-6.9065,-6.9066,0,0,0,-6.8379,-6.8459,-6.8529,-6.8307,-6.839,-6.8666,-6.8538,-6.8821,-6.8848,-6.8943,-6.8992,-6.9005,-6.9025,-6.9067,-6.9069,-6.9554,-6.9556,0,0,-6.8363,-6.8355,-6.851,-6.8547,-6.8507,-6.8529,-6.8547,-6.8837,-6.8889,-6.8993,-6.9014,-6.9032,-6.907,-6.9073,-6.9551,-6.9554,0,0,0,-6.8322,-6.8344,-6.8407,-6.8532,-6.8583,-6.8537,-6.8558,-6.8876,-6.8897,-6.9018,-6.9036,-6.9072,-6.9077,-6.9549,-6.9552,-6.9671,0,0,0,-6.8312,-6.832,-6.8401,-6.8398,-6.8578,-6.8734,-6.859,-6.8877,-6.891,-6.9034,-6.9072,-6.908,-6.9546,-6.9551,-6.9661,-6.9728,0,0,0,-6.828,-6.8316,-6.836,-6.8397,-6.8519,-6.8729,-6.8767,-6.8884,-6.8922,-6.9066,-6.9081,-6.9544,-6.955,-6.9653,-6.9714,-6.9852,0,0,0,-6.8242,-6.846,-6.8362,-6.8612,-6.8517,-6.8801,-6.8765,-6.8977,-6.9115,-6.9074,-6.9546,-6.9552,-6.9651,-6.9706,-6.9844,-6.9967,-7.0018,0,0,-6.8513,-6.8493,-6.864,-6.856,-6.8861,-6.8758,-6.9075,-6.9208,-6.9228,-6.9443,-6.9455,-6.9664,-6.9713,-6.985,-7.0307,-7.0348,0,0,0,-6.8723,-6.8829,-6.8911,-6.9043,-6.9152,-6.9249,-6.9335,-6.9384,-6.9567,-6.9338,-6.9752,-6.9781,-6.9862,-6.9921,-6.9956,-7.0025,-6.9579,-6.9579,-6.9578,-6.9094,-6.9109,-6.9354,-6.9404,-6.9532,-6.9618,-6.9723,-6.9803,-6.978,-6.9877,-6.9941,-7.0217,-7.0286,-7.0312,-7.0384,-7.0008,-7.0008,-7.0009,-7.0009,-6.9491,-6.9644,-6.9608,-6.9833,-6.9846,-7.0034,-7.0125,-7.0102,-7.0277,-7.017,-7.0242,-7.0124,-7.0356,-7.0419,-7.0018,-7.0016,-7.0015,-7.0014,-7.0014,-6.9736,-6.9811,-6.9868,-7.006,-7.0206,-7.0246,-7.0417,-7.0422,-7.0428,-7.05,-7.0567,-7.0565,-7.0563,-7.0531,-7.0532,-7.0533,-7.0534,-7.0535,-7.0535,-6.9967,-7.0028,-7.0172,-7.0304,-7.0389,-7.0501,-7.0589,-7.0671,-7.0764,-7.0754,-7.0755,-7.0721,-7.0377,-7.0289,-7.055,-7.0548,-7.0546,-7.0544,-7.0543,-7.0364,-7.0275,-7.0498,-7.0583,-7.0738,-7.0881,-7.0886,-7.1053,-7.1122,-7.1205,-7.1156,-7.0901,-7.088,-7.0853,-7.0781,-7.1153,-7.1153,-7.1153,-7.1153,-7.057,-7.0561,-7.0789,-7.0924,-7.1057,-7.1084,-7.1332,-7.1401,-7.1457,-7.15,-7.1447,-7.1352,-7.1323,-7.1319,-7.1282,-7.1215,-7.1689,-7.169,-7.169,-7.0815,-7.0818,-7.103,-7.1086,-7.1207,-7.1309,-7.1542,-7.1696,-7.1742,-7.1712,-7.1533,-7.1511,-7.1357,-7.1307,-7.1273,-7.1215,-7.1092,0,0]}]]